JBU1802 KBNA-KFLL

Flight info

Callsign JBU1802
Flight time 1h 42m
Altitude 37000
Route FLAME4 GENDE ACORI TEEKY4
Aircraft A320/M-SDE3FGHIRWY/LB1

Departure

Time 2026-05-04 20:52
Airport Nashville International Airport (KBNA)

Arrival

Time 2026-05-04 22:34
Airport Fort Lauderdale Hollywood International Airport (KFLL)
Time Latitude Longitude Altitude Speed Heading
2026-05-04 20:27 36.12868 -86.67108 575 ft 0 kts 50°
2026-05-04 20:31 36.12867 -86.67108 575 ft 0 kts 50°
2026-05-04 20:45 36.12858 -86.67121 575 ft 4 kts 47°
2026-05-04 20:45 36.12839 -86.67144 575 ft 4 kts 36°
2026-05-04 20:45 36.12816 -86.67158 575 ft 4 kts 360°
2026-05-04 20:46 36.12801 -86.67153 575 ft 1 kts 313°
2026-05-04 20:46 36.12799 -86.67150 575 ft 0 kts 313°
2026-05-04 20:48 36.12836 -86.67199 575 ft 12 kts 313°
2026-05-04 20:48 36.12849 -86.67224 575 ft 0 kts 276°
2026-05-04 20:48 36.12849 -86.67226 575 ft 2 kts 273°
2026-05-04 20:48 36.12845 -86.67273 575 ft 9 kts 252°
2026-05-04 20:49 36.12789 -86.67349 576 ft 15 kts 220°
2026-05-04 20:49 36.12695 -86.67448 575 ft 17 kts 213°
2026-05-04 20:49 36.12589 -86.67527 578 ft 19 kts 218°
2026-05-04 20:49 36.12489 -86.67635 578 ft 17 kts 222°
2026-05-04 20:50 36.12396 -86.67694 576 ft 16 kts 194°
2026-05-04 20:50 36.12358 -86.67730 575 ft 5 kts 248°
2026-05-04 20:50 36.12367 -86.67797 575 ft 11 kts 288°
2026-05-04 20:50 36.12399 -86.67903 575 ft 8 kts 288°
2026-05-04 20:51 36.12386 -86.67970 577 ft 9 kts 213°
2026-05-04 20:51 36.12336 -86.67997 575 ft 0 kts 197°
2026-05-04 20:51 36.12263 -86.68023 578 ft 44 kts 197°
2026-05-04 20:51 36.11685 -86.68257 577 ft 127 kts 198°
2026-05-04 20:52 36.10671 -86.68657 858 ft 164 kts 200°
2026-05-04 20:52 36.09527 -86.69096 1615 ft 180 kts 198°
2026-05-04 20:52 36.08271 -86.69565 2366 ft 200 kts 198°
2026-05-04 20:52 36.06866 -86.70088 3089 ft 222 kts 198°
2026-05-04 20:53 36.05306 -86.70674 3803 ft 247 kts 199°
2026-05-04 20:53 36.03624 -86.71310 4872 ft 257 kts 199°
2026-05-04 20:53 36.01891 -86.71962 5913 ft 262 kts 199°
2026-05-04 20:53 36.00144 -86.72620 6844 ft 264 kts 199°
2026-05-04 20:54 35.98378 -86.73291 7704 ft 268 kts 199°
2026-05-04 20:54 35.96583 -86.73976 8542 ft 273 kts 199°
2026-05-04 20:54 35.94750 -86.74639 9361 ft 277 kts 193°
2026-05-04 20:54 35.92816 -86.74884 10166 ft 282 kts 186°
2026-05-04 20:55 35.90791 -86.75031 10550 ft 302 kts 186°
2026-05-04 20:55 35.88611 -86.75186 10757 ft 326 kts 186°
2026-05-04 20:55 35.86265 -86.75352 10926 ft 349 kts 186°
2026-05-04 20:55 35.83765 -86.75528 11074 ft 370 kts 186°
2026-05-04 20:56 35.81134 -86.75713 11290 ft 386 kts 186°
2026-05-04 20:56 35.78433 -86.75901 11815 ft 392 kts 186°
2026-05-04 20:56 35.75700 -86.76090 12438 ft 395 kts 186°
2026-05-04 20:56 35.72942 -86.76280 13036 ft 399 kts 186°
2026-05-04 20:57 35.70192 -86.76466 13581 ft 403 kts 186°
2026-05-04 20:57 35.67333 -86.76665 14102 ft 408 kts 186°
2026-05-04 20:57 35.64481 -86.76862 14633 ft 413 kts 186°
2026-05-04 20:57 35.61640 -86.77063 15120 ft 417 kts 186°
2026-05-04 20:58 35.58731 -86.77270 15605 ft 421 kts 186°
2026-05-04 20:58 35.55793 -86.77479 16062 ft 425 kts 186°
2026-05-04 20:58 35.52828 -86.77687 16525 ft 428 kts 186°
2026-05-04 20:58 35.49838 -86.77890 16977 ft 432 kts 186°
2026-05-04 20:59 35.46822 -86.78090 17392 ft 436 kts 187°
2026-05-04 20:59 35.43785 -86.78290 17799 ft 439 kts 187°
2026-05-04 20:59 35.40718 -86.78493 18209 ft 443 kts 187°
2026-05-04 20:59 35.37629 -86.78701 18639 ft 445 kts 187°
2026-05-04 21:00 35.34524 -86.78912 19042 ft 448 kts 187°
2026-05-04 21:00 35.31403 -86.79126 19447 ft 451 kts 187°
2026-05-04 21:00 35.28262 -86.79338 19834 ft 453 kts 187°
2026-05-04 21:00 35.25102 -86.79548 20214 ft 456 kts 187°
2026-05-04 21:01 35.21925 -86.79757 20581 ft 458 kts 187°
2026-05-04 21:01 35.18731 -86.79970 20896 ft 461 kts 187°
2026-05-04 21:01 35.15526 -86.80185 21203 ft 462 kts 187°
2026-05-04 21:01 35.12307 -86.80401 21520 ft 464 kts 187°
2026-05-04 21:02 35.09073 -86.80616 21811 ft 466 kts 187°
2026-05-04 21:02 35.05828 -86.80827 22089 ft 468 kts 187°
2026-05-04 21:02 35.02568 -86.81036 22357 ft 470 kts 187°
2026-05-04 21:02 34.99299 -86.81251 22660 ft 471 kts 187°
2026-05-04 21:03 34.96030 -86.81468 23035 ft 470 kts 187°
2026-05-04 21:03 34.92808 -86.81682 23421 ft 469 kts 187°
2026-05-04 21:03 34.89553 -86.81897 23809 ft 468 kts 187°
2026-05-04 21:03 34.86305 -86.82114 24210 ft 467 kts 188°
2026-05-04 21:04 34.83060 -86.82300 24620 ft 468 kts 185°
2026-05-04 21:04 34.79789 -86.82029 25016 ft 474 kts 176°
2026-05-04 21:04 34.76557 -86.81159 25413 ft 478 kts 169°
2026-05-04 21:04 34.73352 -86.80089 25828 ft 477 kts 169°
2026-05-04 21:05 34.70153 -86.79022 26248 ft 476 kts 169°
2026-05-04 21:05 34.66955 -86.77966 26646 ft 476 kts 169°
2026-05-04 21:05 34.63801 -86.76939 27045 ft 475 kts 170°
2026-05-04 21:05 34.60576 -86.75887 27455 ft 474 kts 170°
2026-05-04 21:06 34.57389 -86.74844 27877 ft 473 kts 170°
2026-05-04 21:06 34.54212 -86.73801 28292 ft 473 kts 170°
2026-05-04 21:06 34.51077 -86.72766 28685 ft 472 kts 170°
2026-05-04 21:06 34.47911 -86.71722 29087 ft 472 kts 170°
2026-05-04 21:07 34.44748 -86.70680 29496 ft 471 kts 170°
2026-05-04 21:07 34.41582 -86.69641 29886 ft 471 kts 170°
2026-05-04 21:07 34.38421 -86.68608 30286 ft 470 kts 170°
2026-05-04 21:07 34.35268 -86.67579 30692 ft 469 kts 170°
2026-05-04 21:08 34.32117 -86.66550 31102 ft 468 kts 170°
2026-05-04 21:08 34.28974 -86.65523 31505 ft 467 kts 170°
2026-05-04 21:08 34.25841 -86.64499 31906 ft 466 kts 170°
2026-05-04 21:08 34.22712 -86.63479 32308 ft 465 kts 170°
2026-05-04 21:09 34.19591 -86.62465 32693 ft 464 kts 170°
2026-05-04 21:09 34.16472 -86.61453 33085 ft 464 kts 170°
2026-05-04 21:09 34.13361 -86.60446 33464 ft 463 kts 170°
2026-05-04 21:09 34.10254 -86.59439 33860 ft 461 kts 170°
2026-05-04 21:10 34.07156 -86.58429 34251 ft 460 kts 170°
2026-05-04 21:10 34.04066 -86.57424 34617 ft 459 kts 170°
2026-05-04 21:10 34.00983 -86.56424 34953 ft 459 kts 171°
2026-05-04 21:10 33.97896 -86.55422 35275 ft 459 kts 171°
2026-05-04 21:11 33.94808 -86.54419 35529 ft 460 kts 171°
2026-05-04 21:11 33.91713 -86.53417 35790 ft 461 kts 171°
2026-05-04 21:11 33.88615 -86.52420 36065 ft 461 kts 171°
2026-05-04 21:11 33.85518 -86.51424 36331 ft 461 kts 171°
2026-05-04 21:12 33.82416 -86.50421 36582 ft 461 kts 171°
2026-05-04 21:12 33.79317 -86.49418 36828 ft 461 kts 171°
2026-05-04 21:12 33.76220 -86.48415 37007 ft 461 kts 171°
2026-05-04 21:12 33.73113 -86.47410 37049 ft 465 kts 172°
2026-05-04 21:13 33.66821 -86.45390 37045 ft 469 kts 172°
2026-05-04 21:13 33.60504 -86.43369 37042 ft 470 kts 172°
2026-05-04 21:14 33.54180 -86.41337 37043 ft 471 kts 172°
2026-05-04 21:14 33.47844 -86.39308 37042 ft 471 kts 172°
2026-05-04 21:15 33.41537 -86.37289 37044 ft 472 kts 172°
2026-05-04 21:15 33.35174 -86.35256 37025 ft 475 kts 172°
2026-05-04 21:16 33.28774 -86.33220 37025 ft 477 kts 172°
2026-05-04 21:16 33.22350 -86.31178 37029 ft 478 kts 172°
2026-05-04 21:17 33.15906 -86.29134 37033 ft 479 kts 172°
2026-05-04 21:17 33.09443 -86.27082 37033 ft 481 kts 172°
2026-05-04 21:18 33.02973 -86.25032 37035 ft 482 kts 172°
2026-05-04 21:18 32.96487 -86.22976 37036 ft 483 kts 172°
2026-05-04 21:19 32.91082 -86.21269 37038 ft 484 kts 172°
2026-05-04 21:19 32.84563 -86.19209 37036 ft 485 kts 173°
2026-05-04 21:20 32.78023 -86.17149 37033 ft 487 kts 173°
2026-05-04 21:20 32.71468 -86.15096 37028 ft 487 kts 173°
2026-05-04 21:21 32.64905 -86.13032 37024 ft 489 kts 173°
2026-05-04 21:21 32.58321 -86.10959 37019 ft 490 kts 173°
2026-05-04 21:22 32.51723 -86.08904 37019 ft 491 kts 173°
2026-05-04 21:22 32.45116 -86.06850 37021 ft 492 kts 173°
2026-05-04 21:23 32.38500 -86.04778 37024 ft 492 kts 173°
2026-05-04 21:23 32.31874 -86.02699 37032 ft 492 kts 174°
2026-05-04 21:24 32.25251 -86.00641 37039 ft 493 kts 174°
2026-05-04 21:24 32.18612 -85.98581 37047 ft 493 kts 174°
2026-05-04 21:25 32.11981 -85.96533 37047 ft 493 kts 174°
2026-05-04 21:25 32.05380 -85.94492 37055 ft 493 kts 174°
2026-05-04 21:26 31.98726 -85.92426 37062 ft 494 kts 174°
2026-05-04 21:26 31.92087 -85.90368 37067 ft 494 kts 174°
2026-05-04 21:27 31.85439 -85.88321 37070 ft 494 kts 174°
2026-05-04 21:27 31.78913 -85.85492 37073 ft 510 kts 158°
2026-05-04 21:28 31.73172 -85.80405 37067 ft 526 kts 138°
2026-05-04 21:28 31.68256 -85.74011 37063 ft 527 kts 136°
2026-05-04 21:29 31.63334 -85.67628 37061 ft 527 kts 136°
2026-05-04 21:29 31.58409 -85.61260 37063 ft 527 kts 136°
2026-05-04 21:30 31.53496 -85.54902 37067 ft 526 kts 136°
2026-05-04 21:30 31.48586 -85.48547 37070 ft 525 kts 136°
2026-05-04 21:31 31.41256 -85.39091 37087 ft 524 kts 136°
2026-05-04 21:32 31.36357 -85.32790 37094 ft 523 kts 136°
2026-05-04 21:32 31.31466 -85.26513 37098 ft 522 kts 137°
2026-05-04 21:33 31.26574 -85.20251 37085 ft 521 kts 136°
2026-05-04 21:33 31.21695 -85.14000 37091 ft 520 kts 136°
2026-05-04 21:34 31.16824 -85.07765 37092 ft 519 kts 137°
2026-05-04 21:34 31.11952 -85.01555 37090 ft 518 kts 137°
2026-05-04 21:35 31.07086 -84.95366 37091 ft 517 kts 137°
2026-05-04 21:35 31.02230 -84.89187 37085 ft 516 kts 137°
2026-05-04 21:36 30.97380 -84.83023 37083 ft 515 kts 137°
2026-05-04 21:36 30.92529 -84.76884 37084 ft 515 kts 137°
2026-05-04 21:37 30.87681 -84.70747 37086 ft 514 kts 137°
2026-05-04 21:37 30.82877 -84.64661 37092 ft 513 kts 137°
2026-05-04 21:38 30.78035 -84.58555 37086 ft 513 kts 137°
2026-05-04 21:38 30.73196 -84.52459 37087 ft 512 kts 137°
2026-05-04 21:39 30.68366 -84.46387 37086 ft 511 kts 137°
2026-05-04 21:39 30.63533 -84.40330 37086 ft 511 kts 137°
2026-05-04 21:40 30.58714 -84.34283 37083 ft 510 kts 137°
2026-05-04 21:40 30.53896 -84.28250 37082 ft 509 kts 138°
2026-05-04 21:41 30.49080 -84.22235 37079 ft 509 kts 138°
2026-05-04 21:41 30.44261 -84.16222 37073 ft 508 kts 138°
2026-05-04 21:42 30.39439 -84.10241 37075 ft 506 kts 141°
2026-05-04 21:42 30.33997 -84.05380 37072 ft 491 kts 157°
2026-05-04 21:43 30.28077 -84.01461 37073 ft 490 kts 157°
2026-05-04 21:43 30.22161 -83.97531 37075 ft 490 kts 157°
2026-05-04 21:44 30.16254 -83.93617 37074 ft 490 kts 157°
2026-05-04 21:44 30.10336 -83.89702 37076 ft 490 kts 157°
2026-05-04 21:45 30.04422 -83.85795 37076 ft 490 kts 157°
2026-05-04 21:45 29.98505 -83.81905 37075 ft 489 kts 157°
2026-05-04 21:46 29.92585 -83.78001 37074 ft 490 kts 157°
2026-05-04 21:46 29.86674 -83.74103 37073 ft 489 kts 157°
2026-05-04 21:47 29.80756 -83.70226 37076 ft 489 kts 157°
2026-05-04 21:47 29.74845 -83.66355 37076 ft 488 kts 157°
2026-05-04 21:48 29.68944 -83.62492 37075 ft 488 kts 157°
2026-05-04 21:48 29.63047 -83.58632 37077 ft 488 kts 157°
2026-05-04 21:49 29.57150 -83.54777 37073 ft 487 kts 157°
2026-05-04 21:49 29.51255 -83.50930 37067 ft 486 kts 157°
2026-05-04 21:50 29.45367 -83.47095 37067 ft 486 kts 157°
2026-05-04 21:50 29.39523 -83.43282 37068 ft 486 kts 157°
2026-05-04 21:51 29.33640 -83.39458 37068 ft 486 kts 157°
2026-05-04 21:51 29.27748 -83.35638 37068 ft 486 kts 158°
2026-05-04 21:52 29.21866 -83.31818 37069 ft 486 kts 157°
2026-05-04 21:52 29.16003 -83.27956 37068 ft 486 kts 157°
2026-05-04 21:53 29.10148 -83.24088 37069 ft 485 kts 157°
2026-05-04 21:53 29.04297 -83.20245 37070 ft 485 kts 157°
2026-05-04 21:54 28.98445 -83.16424 37069 ft 484 kts 157°
2026-05-04 21:54 28.92597 -83.12602 37068 ft 484 kts 157°
2026-05-04 21:55 28.86749 -83.08787 37068 ft 484 kts 157°
2026-05-04 21:55 28.80899 -83.04972 37070 ft 484 kts 157°
2026-05-04 21:56 28.75046 -83.01157 37071 ft 484 kts 157°
2026-05-04 21:56 28.69243 -82.97380 37070 ft 483 kts 157°
2026-05-04 21:57 28.63401 -82.93589 37073 ft 483 kts 158°
2026-05-04 21:57 28.57558 -82.89791 37071 ft 483 kts 158°
2026-05-04 21:58 28.51725 -82.86011 37073 ft 482 kts 158°
2026-05-04 21:58 28.45893 -82.82244 37074 ft 482 kts 158°
2026-05-04 21:59 28.40079 -82.78478 37067 ft 481 kts 158°
2026-05-04 21:59 28.34255 -82.74725 37065 ft 481 kts 158°
2026-05-04 22:00 28.28442 -82.70975 37059 ft 480 kts 158°
2026-05-04 22:00 28.22634 -82.67230 37055 ft 480 kts 158°
2026-05-04 22:01 28.16822 -82.63500 37055 ft 479 kts 158°
2026-05-04 22:01 28.11020 -82.59775 37056 ft 479 kts 158°
2026-05-04 22:02 28.05268 -82.56083 37055 ft 478 kts 158°
2026-05-04 22:02 27.99461 -82.52591 37051 ft 469 kts 166°
2026-05-04 22:03 27.93332 -82.50305 37055 ft 462 kts 171°
2026-05-04 22:03 27.87206 -82.48146 37040 ft 461 kts 171°
2026-05-04 22:04 27.81091 -82.45984 37031 ft 461 kts 171°
2026-05-04 22:04 27.75961 -82.44165 37029 ft 461 kts 171°
2026-05-04 22:05 27.69884 -82.42006 37027 ft 461 kts 171°
2026-05-04 22:05 27.63756 -82.39829 37031 ft 461 kts 171°
2026-05-04 22:06 27.57636 -82.37670 37031 ft 461 kts 171°
2026-05-04 22:06 27.51514 -82.35513 37031 ft 461 kts 171°
2026-05-04 22:07 27.45387 -82.33354 37035 ft 461 kts 171°
2026-05-04 22:07 27.39261 -82.31185 37027 ft 463 kts 168°
2026-05-04 22:08 27.33393 -82.27930 37024 ft 475 kts 158°
2026-05-04 22:08 27.27637 -82.24271 37025 ft 475 kts 159°
2026-05-04 22:09 27.21881 -82.20613 37024 ft 475 kts 159°
2026-05-04 22:09 27.16126 -82.16951 37025 ft 476 kts 159°
2026-05-04 22:10 27.10372 -82.13303 37041 ft 473 kts 159°
2026-05-04 22:10 27.07511 -82.11493 36692 ft 472 kts 159°
2026-05-04 22:10 27.04683 -82.09709 35521 ft 473 kts 159°
2026-05-04 22:10 27.01758 -82.07867 33997 ft 480 kts 159°
2026-05-04 22:11 26.98829 -82.06016 32524 ft 487 kts 156°
2026-05-04 22:11 26.96033 -82.03836 31534 ft 493 kts 148°
2026-05-04 22:11 26.93497 -82.01251 29765 ft 509 kts 139°
2026-05-04 22:11 26.91067 -81.98340 28698 ft 513 kts 139°
2026-05-04 22:12 26.88627 -81.95422 28211 ft 516 kts 139°
2026-05-04 22:12 26.86163 -81.92492 27143 ft 518 kts 138°
2026-05-04 22:12 26.83714 -81.89591 26420 ft 505 kts 138°
2026-05-04 22:12 26.81305 -81.86745 26143 ft 488 kts 138°
2026-05-04 22:13 26.79038 -81.84068 25985 ft 472 kts 139°
2026-05-04 22:13 26.76825 -81.81454 26024 ft 457 kts 139°
2026-05-04 22:13 26.74642 -81.78895 25772 ft 452 kts 139°
2026-05-04 22:13 26.72468 -81.76372 25250 ft 450 kts 139°
2026-05-04 22:14 26.70296 -81.73866 24734 ft 446 kts 139°
2026-05-04 22:14 26.68144 -81.71385 24221 ft 443 kts 139°
2026-05-04 22:14 26.66005 -81.68914 23749 ft 440 kts 139°
2026-05-04 22:14 26.63891 -81.66464 23235 ft 438 kts 138°
2026-05-04 22:15 26.61955 -81.63843 22789 ft 437 kts 131°
2026-05-04 22:15 26.60122 -81.61121 22212 ft 437 kts 131°
2026-05-04 22:15 26.58311 -81.58421 21906 ft 431 kts 131°
2026-05-04 22:15 26.56532 -81.55767 21189 ft 424 kts 131°
2026-05-04 22:16 26.54778 -81.53150 20500 ft 415 kts 131°
2026-05-04 22:16 26.53048 -81.50575 19999 ft 413 kts 131°
2026-05-04 22:16 26.51326 -81.48023 19485 ft 410 kts 131°
2026-05-04 22:16 26.49616 -81.45491 18988 ft 406 kts 131°
2026-05-04 22:17 26.47923 -81.42982 18467 ft 403 kts 131°
2026-05-04 22:17 26.46241 -81.40493 17968 ft 402 kts 131°
2026-05-04 22:17 26.44564 -81.38014 17463 ft 399 kts 131°
2026-05-04 22:17 26.42898 -81.35550 16960 ft 396 kts 131°
2026-05-04 22:18 26.41243 -81.33104 16474 ft 392 kts 131°
2026-05-04 22:18 26.39572 -81.30724 15996 ft 388 kts 133°
2026-05-04 22:18 26.37864 -81.28409 15506 ft 384 kts 134°
2026-05-04 22:18 26.36151 -81.26149 15058 ft 380 kts 134°
2026-05-04 22:19 26.34446 -81.23921 14594 ft 376 kts 134°
2026-05-04 22:19 26.32754 -81.21709 14103 ft 373 kts 134°
2026-05-04 22:19 26.31085 -81.19515 13652 ft 369 kts 134°
2026-05-04 22:19 26.29434 -81.17327 13183 ft 366 kts 133°
2026-05-04 22:20 26.27811 -81.15164 12719 ft 363 kts 133°
2026-05-04 22:20 26.26194 -81.13021 12239 ft 360 kts 134°
2026-05-04 22:20 26.24589 -81.10906 11798 ft 356 kts 134°
2026-05-04 22:20 26.22993 -81.08811 11341 ft 352 kts 133°
2026-05-04 22:21 26.21413 -81.06737 10916 ft 349 kts 133°
2026-05-04 22:21 26.19855 -81.04689 10490 ft 345 kts 133°
2026-05-04 22:21 26.18325 -81.02678 10332 ft 333 kts 133°
2026-05-04 22:21 26.16856 -81.00747 10228 ft 321 kts 133°
2026-05-04 22:22 26.15501 -80.98826 10100 ft 312 kts 124°
2026-05-04 22:22 26.14584 -80.96668 10016 ft 307 kts 109°
2026-05-04 22:22 26.14109 -80.94343 9817 ft 310 kts 102°
2026-05-04 22:22 26.13715 -80.91980 9419 ft 310 kts 101°
2026-05-04 22:23 26.13333 -80.89662 9095 ft 307 kts 101°
2026-05-04 22:23 26.12951 -80.87330 8762 ft 305 kts 101°
2026-05-04 22:23 26.12570 -80.85020 8440 ft 302 kts 101°
2026-05-04 22:23 26.12189 -80.82727 8120 ft 299 kts 101°
2026-05-04 22:24 26.11812 -80.80461 7790 ft 297 kts 101°
2026-05-04 22:24 26.11436 -80.78210 7472 ft 294 kts 101°
2026-05-04 22:24 26.11063 -80.75985 7138 ft 292 kts 101°
2026-05-04 22:24 26.10690 -80.73769 6823 ft 290 kts 101°
2026-05-04 22:25 26.10321 -80.71578 6528 ft 286 kts 101°
2026-05-04 22:25 26.09958 -80.69425 6339 ft 281 kts 101°
2026-05-04 22:25 26.09600 -80.67296 6188 ft 279 kts 101°
2026-05-04 22:25 26.09244 -80.65177 6042 ft 278 kts 101°
2026-05-04 22:26 26.08889 -80.63064 5895 ft 277 kts 101°
2026-05-04 22:26 26.08532 -80.60961 5744 ft 276 kts 101°
2026-05-04 22:26 26.08175 -80.58867 5606 ft 275 kts 101°
2026-05-04 22:26 26.07822 -80.56787 5461 ft 273 kts 100°
2026-05-04 22:27 26.07471 -80.54716 5314 ft 272 kts 100°
2026-05-04 22:27 26.07123 -80.52661 5188 ft 270 kts 100°
2026-05-04 22:27 26.06793 -80.50612 5040 ft 266 kts 96°
2026-05-04 22:27 26.06741 -80.49269 4934 ft 260 kts 89°
2026-05-04 22:28 26.06727 -80.44992 4557 ft 245 kts 89°
2026-05-04 22:28 26.06718 -80.43123 4393 ft 238 kts 89°
2026-05-04 22:28 26.06710 -80.41316 4234 ft 229 kts 89°
2026-05-04 22:29 26.06703 -80.39604 4101 ft 213 kts 89°
2026-05-04 22:29 26.06696 -80.38002 3860 ft 202 kts 89°
2026-05-04 22:29 26.06690 -80.36467 3639 ft 195 kts 88°
2026-05-04 22:29 26.06684 -80.34973 3369 ft 191 kts 88°
2026-05-04 22:30 26.06677 -80.33518 3101 ft 183 kts 88°
2026-05-04 22:30 26.06671 -80.32155 2866 ft 169 kts 87°
2026-05-04 22:30 26.06665 -80.30890 2648 ft 158 kts 87°
2026-05-04 22:30 26.06659 -80.29708 2435 ft 147 kts 87°
2026-05-04 22:31 26.06654 -80.28604 2269 ft 140 kts 87°
2026-05-04 22:31 26.06649 -80.27525 2080 ft 139 kts 87°
2026-05-04 22:31 26.06644 -80.26458 1887 ft 137 kts 87°
2026-05-04 22:31 26.06639 -80.25415 1716 ft 136 kts 87°
2026-05-04 22:32 26.06634 -80.24363 1536 ft 136 kts 87°
2026-05-04 22:32 26.06628 -80.23313 1353 ft 137 kts 87°
2026-05-04 22:32 26.06625 -80.22249 1173 ft 138 kts 86°
2026-05-04 22:32 26.06619 -80.21185 990 ft 137 kts 89°
2026-05-04 22:33 26.06613 -80.20136 808 ft 135 kts 91°
2026-05-04 22:33 26.06607 -80.19086 629 ft 136 kts 91°
2026-05-04 22:33 26.06601 -80.18039 449 ft 135 kts 91°
2026-05-04 22:33 26.06596 -80.16983 267 ft 139 kts 90°
2026-05-04 22:34 26.06587 -80.15896 72 ft 144 kts 91°
2026-05-04 22:34 26.06577 -80.14914 25 ft 83 kts 91°
2026-05-04 22:34 26.06587 -80.14743 37 ft 4 kts 60°